Regional Weather Roundup
Issued by NWS

Home | Current Version | Previous Version | Graphics & Text | Print | Product List | Glossary On
Versions: 1 2 3 4 5 6 7 8 9 10 11 12 13 14 15 16 17 18 19 20 21 22 23 24 25 26 27 28 29 30 31 32 33 34 35 36 37 38 39 40 41 42 43 44 45 46 47 48 49 50
000
ASUS43 KFSD 270710
RWRSD

WEATHER ROUNDUP FOR SOUTH DAKOTA
NATIONAL WEATHER SERVICE SIOUX FALLS SD
100 AM CST FRI FEB 27 2015

NOTE: "FAIR" INDICATES FEW OR NO CLOUDS BELOW 12,000 FEET WITH NO
SIGNIFICANT WEATHER AND/OR OBSTRUCTIONS TO VISIBILITY.


SDZ001>005-009-010-012>017-270800-
NORTHWEST AND NORTH CENTRAL SOUTH DAKOTA

CITY           SKY/WX    TMP DP  RH WIND       PRES   REMARKS
BUFFALO          N/A     -1  -9  68 S6        30.24F WCI -13
FAITH            N/A      0  -7  72 S9        30.39F WCI -15
MOBRIDGE       PTCLDY    -9 -14  78 N5        30.44F WCI -20
$$

SDZ012>016-024>037-041>051-057-063-072>074-270800-
SOUTHWEST AND SOUTH CENTRAL SOUTH DAKOTA

CITY           SKY/WX    TMP DP  RH WIND       PRES   REMARKS
RAPID CTY ARPT CLEAR    -10 -15  78 CALM      30.33F
PIERRE         CLEAR     -3  -7  82 SW6       30.49F WCI -15
CUSTER         CLEAR    -13 -18  78 CALM      30.10F
ELLSWORTH AFB  PTCLDY     0  -9  65 SW5       30.31F WCI -10
PHILIP         CLEAR     -7 -12  79 W5        30.45F WCI -18
PINE RIDGE     CLEAR     -4 -10  75 CALM      30.34F
WINNER         FAIR       0 -10  63 SW5       30.48F WCI -10
$$

SDZ004>011-016>023-039-040-270800-
NORTHEAST SOUTH DAKOTA

CITY           SKY/WX    TMP DP  RH WIND       PRES   REMARKS
ABERDEEN       CLEAR    -13 -18  78 SW7       30.52F WCI -29
WATERTOWN      CLEAR    -12 -16  82 W5        30.45S WCI -24
SISSETON         N/A     -5 -11  75 NW8       30.49S WCI -20
$$

SDZ017-020-022-023-036>040-048>070-270800-
SOUTHEAST SOUTH DAKOTA

CITY           SKY/WX    TMP DP  RH WIND       PRES   REMARKS
SIOUX FALLS    CLEAR     -7 -12  79 W6        30.52S WCI -20
HURON          MOCLDY   -17 -21  82 W6        30.54S WCI -32
CHAMBERLAIN    CLEAR     -4  -9  79 CALM      30.51F
MITCHELL       CLEAR     -4  -9  79 W5        30.56S WCI -15
YANKTON        CLEAR     -2  -8  78 SW3       30.58S
$$

ABBREVIATIONS USED IN REMARKS
   TC - TEMPERATURE IN CELSIUS
  WCI - WIND CHILL INDEX
   HX - HEAT INDEX
  VSB - VISIBILITY




USA.gov is the U.S. government's official web portal to all federal, state and local government web resources and services.